Regional Weather Roundup
Issued by NWS Little Rock, AR

Home | Current Version | Previous Version | Graphics & Text | Print | Product List | Glossary On
Versions: 1 2 3 4 5 6 7 8 9 10 11 12 13 14 15 16 17 18 19 20 21 22 23 24 25 26 27 28 29 30 31 32
000
ASUS44 KLZK 272205
RWRLZK

WEATHER ROUNDUP FOR ARKANSAS
NATIONAL WEATHER SERVICE LITTLE ROCK AR
500 PM CDT MON MAR 27 2017

NOTE: "FAIR" INDICATES FEW OR NO CLOUDS BELOW 12,000 FEET WITH NO
SIGNIFICANT WEATHER AND/OR OBSTRUCTIONS TO VISIBILITY.

ARZ001-003-010-029-272300-
NORTHWEST ARKANSAS

CITY           SKY/WX    TMP DP  RH WIND       PRES   REMARKS
FAYETTEVILLE   CLOUDY    55  54  96 W8        29.90S
FORT SMITH     PTSUNNY   66  53  63 W14       29.88S
HARRISON       PTSUNNY   63  53  70 W7        29.86R
BENTONVILLE    CLOUDY    54  48  82 NW7       29.92R
ROGERS         CLOUDY    53  51  93 W10       29.91R
SILOAM SPGS    CLOUDY    54  46  76 NW6       29.92R
HIGHFILL       CLOUDY    54  50  86 NW8       29.91R
SPRINGDALE     CLOUDY    54  52  94 NW9       29.92R
$$

ARZ004-005-016-272300-
NORTH CENTRAL ARKANSAS

CITY           SKY/WX    TMP DP  RH WIND       PRES   REMARKS
BATESVILLE     PTSUNNY   73  57  56 NW9G18    29.80R
FLIPPIN        MOSUNNY   68  52  56 NW9       29.81R
MTN HOME       MOSUNNY   70  54  56 NW6       29.82S
$$

ARZ040-041-272300-
WEST CENTRAL ARKANSAS

CITY           SKY/WX    TMP DP  RH WIND       PRES   REMARKS
MENA           SUNNY     68  59  73 NE9       29.87S
MOUNT IDA      SUNNY     71  55  56 N7        29.82R
$$

ARZ009-017-025-026-028-272300-
NORTHEAST ARKANSAS

CITY           SKY/WX    TMP DP  RH WIND       PRES   REMARKS
CORNING        FAIR      70  63  78 NW12      29.79F
JONESBORO      PTSUNNY   68  61  78 N8        29.77F
NEWPORT        PTSUNNY   75  63  66 W8        29.78R
WALNUT RIDGE   MOSUNNY   73  57  56 NW14      29.78S
BLYTHEVILLE    CLOUDY    64  60  87 NE10      29.79R
NW BLYTHEVILLE CLOUDY    64  57  77 N7        29.79S
$$

ARZ022-023-033-042-044-272300-
CENTRAL ARKANSAS

CITY           SKY/WX    TMP DP  RH WIND       PRES   REMARKS
LITTLE ROCK    MOSUNNY   79  59  50 W13       29.77F
N LITTLE ROCK    N/A     77  62  61 W7        29.78S
JACKSONVILLE   MOSUNNY   80  63  55 W13       29.77S
CONWAY           N/A     77  59  53 W15       29.78R
SEARCY         MOSUNNY   80  62  54 W9        29.78S
HOT SPRINGS    MOSUNNY   79  59  50 NW9       29.80S
RUSSELLVILLE   SUNNY     71  56  58 W14G21    29.83R
CLINTON        FAIR      77  57  50 NW12G18   29.79S
$$

ARZ036-272300-
EAST ARKANSAS

CITY           SKY/WX    TMP DP  RH WIND       PRES   REMARKS
WEST MEMPHIS   SUNNY     80  63  55 SW9G23    29.74F
$$

ARZ050-053-066-070-073-272300-
SOUTHWEST ARKANSAS

CITY           SKY/WX    TMP DP  RH WIND       PRES   REMARKS
ARKADELPHIA    FAIR      79  60  52 W17       29.81R
CAMDEN         MOSUNNY   81  59  47 SW12      29.80F
TEXARKANA      SUNNY     78  61  55 W10G18    29.83S
DE QUEEN       SUNNY     75  59  57 NW8       29.82S
$$

ARZ056-057-069-272300-
SOUTHEAST ARKANSAS

CITY           SKY/WX    TMP DP  RH WIND       PRES   REMARKS
PINE BLUFF     MOSUNNY   81  61  50 SW15      29.79F
STUTTGART      MOSUNNY   81  61  50 SW15G21   29.79F
MONTICELLO       N/A     84  59  42 W9        29.79

$$






USA.gov is the U.S. government's official web portal to all federal, state and local government web resources and services.